Regional Weather Roundup
Issued by NWS San Diego, CA

Home | Current Version | Previous Version | Text Only | Print | Product List | Glossary On
Versions: 1 2 3 4 5 6 7 8 9 10 11 12 13 14 15 16 17 18 19 20 21 22 23 24 25 26 27
000
ASUS46 KSGX 301311
RWRSGX

SAN DIEGO HOURLY WEATHER ROUNDUP
NATIONAL WEATHER SERVICE SAN DIEGO CA
600 AM PDT SAT APR 30 2016

NOTE: "FAIR" INDICATES FEW OR NO CLOUDS BELOW 12,000 FEET WITH NO
SIGNIFICANT WEATHER AND/OR OBSTRUCTIONS TO VISIBILITY.

CAZ042-043-060-061-PZZ750-775-301400-

GREATER SAN DIEGO AREA

CITY           SKY/WX    TMP DP  RH WIND       PRES   REMARKS
LINDBERGH FLD  CLOUDY    58  50  75 S12       29.86F
POINT LOMA       N/A     55  55 100 S12         N/A
NATIONAL CITY    N/A    N/A N/A N/A S8        29.86F
CHULA VISTA      N/A     56  51  84 SW2       29.78F
IMPERIAL BEACH CLOUDY    58  51  78 S6        29.86F
BROWN FIELD    CLOUDY    54  48  80 S12       29.86F
MIRAMAR MCAS   LGT RAIN  57  49  74 S9        29.84S
MONTGOMERY FLD LGT RAIN  55  50  83 S8        29.85F

$$

NORTH SAN DIEGO COUNTY

CITY           SKY/WX    TMP DP  RH WIND       PRES   REMARKS
CAMP PENDLETON LGT RAIN  56  51  84 S6        29.83F
OCEANSIDE AP   CLOUDY    57  49  74 S8        29.83S
OCEANSIDE HBR    N/A     58  52  81 S7        29.85F
VISTA            N/A     55  49  83 CALM      29.82F
CARLSBAD       CLOUDY    57  48  72 SE10      29.82F
DEL MAR          N/A     56  50  81 S5        29.87F
LA JOLLA SCRIP   N/A     56  51  84 SE3       29.84F
FALLBROOK        N/A     53  52  97 CALM      29.82F
SAN MARCOS       N/A     54  45  71 SE1       29.82F
POWAY            N/A     55  48  80 S3        29.87F

$$

EAST SAN DIEGO COUNTY

CITY           SKY/WX    TMP DP  RH WIND       PRES   REMARKS
RAMONA         CLOUDY    50  46  86 S9        29.85S
SANTEE LAKES     N/A     55  50  82 S9        29.84F
LA MESA          N/A     54  49  84 CALM      29.78F
JAMUL            N/A     52  47  82 SE3       29.85F
DESCANSO N       N/A     45  41  86 SW9       29.72F
MT. LAGUNA OBS   N/A     33  31  93 W12       29.47  WCI  24
CAMPO            N/A     47  44  90 SW10      29.81S

$$

ORANGE COUNTY AND THE LOS ANGELES BASIN

CITY           SKY/WX    TMP DP  RH WIND       PRES   REMARKS
JOHN WAYNE AP  LGT RAIN  55  53  93 CALM      29.82S
LAKE FOREST FR   N/A     51  48  89 E6        29.72F
HUNTINGTON BCH   N/A     56  53  88 S2        29.84F
LOS ALAMITOS   FAIR      57  51  80 E5        29.82F
FULLERTON      CLOUDY    58  51  78 E3        29.82R
LONG BEACH     CLOUDY    58  50  75 S3        29.82F
L.A. AP        CLOUDY    57  48  72 W6        29.82F
L.A. DOWNTOWN  CLOUDY    57  50  77 CALM      29.81F

$$

THE INLAND EMPIRE

CITY           SKY/WX    TMP DP  RH WIND       PRES   REMARKS
CORONA         CLOUDY    56  52  86 W3        29.82S
CHINO          CLOUDY    56  51  84 W8        29.82F
ONTARIO        LGT RAIN  54  51  90 W5        29.80F FOG
RIVERSIDE AP   CLOUDY    55  52  89 CALM      29.81F
MORENO VALLEY    N/A     51  51  98 S3        27.95S
MARCH ARB      CLOUDY    52  50  93 S9        29.80S
HORSETHIEF CYN   N/A     53  44  72 SW5       29.83F
PERRIS           N/A     51  50  96 S7          N/A
HEMET EAST       N/A     50  45  82 CALM      29.70F
FRENCH VALLEY  CLOUDY    52  48  87 SW7       29.82F
TEMECULA         N/A     54  51  92 SW8       29.80F

$$

SAN BERNARDINO AND RIVERSIDE COUNTY MOUNTAINS

CITY           SKY/WX    TMP DP  RH WIND       PRES   REMARKS
BIG BEAR AP    CLEAR     32  32 100 W3        29.81F
ANGELUS OAKS     N/A     38  36  89 CALM      29.67F
PINE COVE        N/A     37  37  98 W2        29.71F

$$

SOUTHERN DESERT INCLUDING THE COACHELLA VALLEY

CITY           SKY/WX    TMP DP  RH WIND       PRES   REMARKS
PALM SPRINGS   CLEAR     61  47  59 W8        29.68S
THOUSAND PALMS   N/A     62  47  57 NW20      29.66S
PALM DESERT      N/A     60  48  63 CALM      30.92S
THERMAL        CLEAR     65  45  48 N12       29.65S
BLYTHE         CLEAR     63  46  54 S13       29.67F
IMPERIAL AP    CLEAR     63  42  46 W23G31    29.69R
EL CENTRO NAS  CLEAR     65  41  41 W20G29    29.72R
YUMA AZ        CLEAR     63  53  70 SE10      29.69

$$

UPPER DESERT

CITY           SKY/WX    TMP DP  RH WIND       PRES   REMARKS
VICTORVILLE AP PTCLDY    48  36  61 SW9       29.78S
HESPERIA         N/A     49  45  87 NW3       29.89R
PALMDALE       CLEAR     51  32  48 W12G18    29.80R
LANCASTER      CLEAR     50  28  42 W21       29.79R
EDWARDS AFB    PTCLDY    51  28  40 SW13      29.76R
DAGGETT        PTCLDY    57  35  43 W13       29.75R
29 PALMS N     PTCLDY    58  38  47 N17G23    29.79R
NEEDLES        MOCLDY    68  40  35 NW12      29.66R

$$

REGIONAL REPORTS

CITY           SKY/WX    TMP DP  RH WIND       PRES   REMARKS
SANTA BARBARA  CLEAR     49  43  80 N5        29.83R
SANDBERG       CLOUDY    43  27  53 NW13      29.83F
LAS VEGAS NV   LGT RAIN  50  48  93 NW16      29.71R
PHOENIX AZ     PTCLDY    64  37  36 E10       29.73F
TIJUANA        CLOUDY    55  46  71 S8        29.89F
ENSENADA NW      N/A     58  32  38 W1        29.88S

$$

OFFSHORE ISLANDS

CITY           SKY/WX    TMP DP  RH WIND       PRES   REMARKS
CATALINA ARPT  CLOUDY    49  47  93 E5        29.82S
SAN NICOLAS IS CLOUDY   N/A N/A N/A NW33G45   29.83R

$$

MARINE AND OFFSHORE BUOY REPORTS

STATION/POSITION SKY/WX   TEMP    WIND        PRES    SWELL
                          AIR SEA DIR/SP/G            HT/PER/DIR
                          (F)     (DEG/KT/KT) (MB)    (FT/S/D)
TANNER BANKS               57 58  300/ 25/ 29 1011.1F   7/300/19
S CLEMENTE BASIN           56 61  280/ 19/ 25 1010.0F   5/290/11
SAN NICOLAS IS.               56                N/A     7/300/12
SO. S. ROSA ISLA           54 55  310/ 19/ 25 1010.8F   7/290/13
W. S. BARBARA CH           52 51  340/ 19/ 25 1010.2F   8/310/ 9
M. S. BARBARA CH           54 55  320/ 17/ 23 1010.5S
S. MONICA BASIN            55 58  330/ 17/ 21 1010.2R   3/260/ 8
S PEDRO CHANNEL               61                N/A     2/280/12
OCEANSIDE OFFSHR              64                N/A     2/190/15
TORREY PINES OTR              64                N/A     3/280/12
LA JOLLA 1                 58 65  200/ 10/ 13 1011.0F
SAN DIEGO BAY                 68              1011.6F
POINT LOMA SOUTH              63                N/A     3/250/14

$$





USA.gov is the U.S. government's official web portal to all federal, state and local government web resources and services.